Rensselaer, IN

3:01 AM CDT on April 26, 2018 (GMT -0500)
Jasper County

Weather History for KRZL - April, 2014

Change the Weather History Date:

Tuesday, April 1, 2014

  Actual Average (KIKK) Record (KIKK)
Temperature  
Mean Temperature 46 °F -  
Max Temperature 55 °F 55 °F 85 °F (1986)
Min Temperature 37 °F 34 °F 21 °F (1987)
Degree Days  
Heating Degree Days 19    
Moisture  
Dew Point 32 °F    
Average Humidity 56    
Maximum Humidity 71    
Minimum Humidity 41    
Precipitation  
Precipitation 0.00 in - - ()
Sea Level Pressure  
Sea Level Pressure 29.92 in    
Wind  
Wind Speed 17 mph (WSW)    
Max Wind Speed 26 mph    
Max Gust Speed 34 mph    
Visibility 10 miles    
Events      
Averages and records for this station are not official NWS values.
T = Trace of Precipitation, MM = Missing Value Source: NWS Daily Summary

Daily Weather History Graph

Daily Weather History Graph

Search for Another Location

Airport or City:

Astronomy

Apr. 01, 2014 Rise Set
Actual Time 6:32 AM CDT 7:13 PM CDT
Civil Twilight 6:04 AM CDT 7:41 PM CDT
Nautical Twilight 5:31 AM CDT 8:14 PM CDT
Astronomical Twilight 4:57 AM CDT 8:48 PM CDT
Moon 7:33 AM CDT (4/1) 9:36 PM CDT (4/1)
Length of Visible Light 13h 37m
Length of Day
12h 41m
Waxing Crescent, 5% of the Moon is Illuminated
Apr 1
Waxing Crescent
Apr 7
First Quarter
Apr 15
Full
Apr 22
Last Quarter
Apr 29
New

Hourly Weather History & Observations

Time (CDT) Temp. Windchill Dew Point Humidity Pressure Visibility Wind Dir Wind Speed Gust Speed Precip Events Conditions
12:15 AM 55.4 °F - 37.4 °F 51% 29.81 in 10.0 mi SSE 15.0 mph 20.7 mph N/A   Overcast
12:35 AM 55.4 °F - 35.6 °F 47% 29.81 in 10.0 mi South 16.1 mph - N/A   Mostly Cloudy
12:55 AM 55.4 °F - 35.6 °F 47% 29.81 in 10.0 mi South 12.7 mph 23.0 mph N/A   Scattered Clouds
1:15 AM 55.4 °F - 35.6 °F 47% 29.81 in 10.0 mi South 13.8 mph 20.7 mph N/A   Mostly Cloudy
1:35 AM 55.4 °F - 35.6 °F 47% 29.80 in 10.0 mi South 13.8 mph 20.7 mph N/A   Overcast
1:55 AM 55.4 °F - 35.6 °F 47% 29.79 in 10.0 mi South 17.3 mph - N/A   Mostly Cloudy
2:15 AM 55.4 °F - 35.6 °F 47% 29.78 in 10.0 mi South 17.3 mph 25.3 mph N/A   Scattered Clouds
2:35 AM 53.6 °F - 37.4 °F 54% 29.78 in 10.0 mi SSW 17.3 mph - N/A   Scattered Clouds
2:55 AM 55.4 °F - 37.4 °F 51% 29.76 in 10.0 mi South 19.6 mph 25.3 mph N/A   Clear
3:15 AM 53.6 °F - 37.4 °F 54% 29.76 in 10.0 mi SSW 17.3 mph 21.9 mph N/A   Clear
3:35 AM 53.6 °F - 37.4 °F 54% 29.76 in 10.0 mi SSW 17.3 mph 21.9 mph N/A   Clear
3:55 AM 51.8 °F - 39.2 °F 62% 29.75 in 10.0 mi SSW 16.1 mph - N/A   Clear
4:15 AM 51.8 °F - 41.0 °F 67% 29.75 in 10.0 mi SSW 17.3 mph - N/A   Clear
4:35 AM 51.8 °F - 41.0 °F 67% 29.75 in 10.0 mi SSW 18.4 mph 24.2 mph N/A   Clear
4:55 AM 51.8 °F - 42.8 °F 71% 29.76 in 10.0 mi SW 19.6 mph 23.0 mph N/A   Mostly Cloudy
5:15 AM 51.8 °F - 42.8 °F 71% 29.76 in 10.0 mi WSW 18.4 mph 23.0 mph N/A   Overcast
5:35 AM 50.0 °F - 37.4 °F 62% 29.78 in 10.0 mi WSW 17.3 mph 23.0 mph N/A   Mostly Cloudy
5:55 AM 46.4 °F 39.5 °F 35.6 °F 66% 29.79 in 10.0 mi WSW 17.3 mph 21.9 mph N/A   Mostly Cloudy
6:15 AM 46.4 °F 39.8 °F 33.8 °F 62% 29.80 in 10.0 mi WSW 16.1 mph - N/A   Overcast
6:35 AM 44.6 °F 38.1 °F 32.0 °F 61% 29.81 in 10.0 mi West 13.8 mph 18.4 mph N/A   Overcast
6:55 AM 44.6 °F 36.9 °F 32.0 °F 61% 29.83 in 10.0 mi WSW 18.4 mph 21.9 mph N/A   Overcast
7:15 AM 42.8 °F 34.3 °F 30.2 °F 61% 29.83 in 10.0 mi WSW 19.6 mph 27.6 mph N/A   Scattered Clouds
7:35 AM 42.8 °F 34.0 °F 30.2 °F 61% 29.85 in 10.0 mi WSW 20.7 mph 26.5 mph N/A   Clear
7:55 AM 41.0 °F 30.9 °F 28.4 °F 61% 29.86 in 10.0 mi WSW 24.2 mph 32.2 mph N/A   Clear
8:15 AM 41.0 °F 31.1 °F 28.4 °F 61% 29.87 in 10.0 mi WSW 23.0 mph 27.6 mph N/A   Clear
8:35 AM 39.2 °F 28.3 °F 28.4 °F 65% 29.88 in 10.0 mi West 25.3 mph 33.4 mph N/A   Clear
8:55 AM 39.2 °F 28.7 °F 28.4 °F 65% 29.90 in 10.0 mi West 23.0 mph 31.1 mph N/A   Scattered Clouds
9:15 AM 37.4 °F 26.4 °F 26.6 °F 65% 29.91 in 10.0 mi WSW 23.0 mph 32.2 mph N/A   Clear
9:35 AM 37.4 °F 26.9 °F 24.8 °F 60% 29.92 in 10.0 mi WSW 20.7 mph 31.1 mph N/A   Clear
9:55 AM 37.4 °F 27.5 °F 26.6 °F 65% 29.93 in 10.0 mi WSW 18.4 mph 31.1 mph N/A   Clear
10:15 AM 37.4 °F 27.2 °F 24.8 °F 60% 29.93 in 10.0 mi WSW 19.6 mph 32.2 mph N/A   Mostly Cloudy
10:35 AM 39.2 °F 28.7 °F 26.6 °F 61% 29.93 in 10.0 mi WSW 23.0 mph 29.9 mph N/A   Mostly Cloudy
10:55 AM 41.0 °F 31.1 °F 26.6 °F 57% 29.93 in 10.0 mi WSW 23.0 mph 31.1 mph N/A   Mostly Cloudy
11:15 AM 41.0 °F 30.9 °F 26.6 °F 57% 29.93 in 10.0 mi SW 24.2 mph 28.8 mph N/A   Scattered Clouds
11:35 AM 41.0 °F 31.1 °F 28.4 °F 61% 29.94 in 10.0 mi SW 23.0 mph 29.9 mph N/A   Scattered Clouds
11:55 AM 42.8 °F 34.0 °F 28.4 °F 57% 29.94 in 10.0 mi WSW 20.7 mph 31.1 mph N/A   Scattered Clouds
12:15 PM 44.6 °F 36.1 °F 28.4 °F 53% 29.94 in 10.0 mi SW 21.9 mph 28.8 mph N/A   Scattered Clouds
12:35 PM 44.6 °F 35.7 °F 28.4 °F 53% 29.94 in 10.0 mi WSW 24.2 mph 33.4 mph N/A   Clear
12:55 PM 46.4 °F 37.7 °F 30.2 °F 53% 29.95 in 10.0 mi WSW 26.5 mph 32.2 mph N/A   Clear
1:15 PM 46.4 °F 38.3 °F 30.2 °F 53% 29.96 in 10.0 mi SW 23.0 mph 32.2 mph N/A   Clear
1:35 PM 48.2 °F - 30.2 °F 50% 29.96 in 10.0 mi WSW 21.9 mph 34.5 mph N/A   Clear
1:55 PM 50.0 °F - 30.2 °F 47% 29.96 in 10.0 mi SW 26.5 mph 33.4 mph N/A   Clear
2:15 PM 50.0 °F - 30.2 °F 47% 29.96 in 10.0 mi WSW 23.0 mph 34.5 mph N/A   Clear
2:35 PM 50.0 °F - 30.2 °F 47% 29.96 in 10.0 mi WSW 24.2 mph 32.2 mph N/A   Clear
2:55 PM 50.0 °F - 30.2 °F 47% 29.96 in 10.0 mi SW 23.0 mph 33.4 mph N/A   Clear
3:15 PM 51.8 °F - 30.2 °F 44% 29.96 in 10.0 mi SW 26.5 mph 33.4 mph N/A   Clear
3:35 PM 51.8 °F - 30.2 °F 44% 29.97 in 10.0 mi WSW 24.2 mph 32.2 mph N/A   Clear
3:55 PM 51.8 °F - 30.2 °F 44% 29.97 in 10.0 mi WSW 25.3 mph 31.1 mph N/A   Clear
4:15 PM 51.8 °F - 30.2 °F 44% 29.97 in 10.0 mi WSW 25.3 mph 31.1 mph N/A   Clear
4:35 PM 51.8 °F - 30.2 °F 44% 29.97 in 10.0 mi WSW 21.9 mph 27.6 mph N/A   Clear
4:55 PM 51.8 °F - 30.2 °F 44% 29.97 in 10.0 mi WSW 21.9 mph 28.8 mph N/A   Clear
5:15 PM 51.8 °F - 28.4 °F 41% 29.98 in 10.0 mi WSW 17.3 mph 25.3 mph N/A   Clear
5:35 PM 51.8 °F - 30.2 °F 44% 29.99 in 10.0 mi West 17.3 mph 21.9 mph N/A   Clear
5:55 PM 50.0 °F - 28.4 °F 43% 29.99 in 10.0 mi WSW 13.8 mph 20.7 mph N/A   Clear
6:15 PM 50.0 °F - 28.4 °F 43% 30.00 in 10.0 mi West 11.5 mph 17.3 mph N/A   Clear
6:35 PM 50.0 °F - 28.4 °F 43% 30.01 in 10.0 mi West 10.4 mph - N/A   Scattered Clouds
6:55 PM 48.2 °F - 30.2 °F 50% 30.01 in 10.0 mi West 9.2 mph - N/A   Mostly Cloudy
7:15 PM 46.4 °F 41.9 °F 28.4 °F 50% 30.02 in 10.0 mi West 9.2 mph - N/A   Overcast
7:35 PM 46.4 °F 42.9 °F 30.2 °F 53% 30.04 in 10.0 mi WSW 6.9 mph - N/A   Overcast
7:55 PM 46.4 °F 40.7 °F 30.2 °F 53% 30.07 in 10.0 mi WSW 12.7 mph - N/A   Scattered Clouds
8:15 PM 46.4 °F 41.1 °F 30.2 °F 53% 30.08 in 10.0 mi WSW 11.5 mph - N/A   Clear
8:35 PM 44.6 °F 39.7 °F 30.2 °F 57% 30.09 in 10.0 mi WSW 9.2 mph - N/A   Clear
8:55 PM 44.6 °F 40.7 °F 30.2 °F 57% 30.09 in 10.0 mi WSW 6.9 mph - N/A   Clear
9:15 PM 44.6 °F 41.4 °F 30.2 °F 57% 30.09 in 10.0 mi WSW 5.8 mph - N/A   Clear
9:35 PM 42.8 °F 39.3 °F 32.0 °F 66% 30.09 in 10.0 mi WSW 5.8 mph - N/A   Clear
9:55 PM 41.0 °F 37.1 °F 32.0 °F 70% 30.08 in 10.0 mi WSW 5.8 mph - N/A   Clear
10:15 PM 42.8 °F 40.1 °F 32.0 °F 66% 30.08 in 10.0 mi West 4.6 mph - N/A   Clear
10:35 PM 42.8 °F 40.1 °F 32.0 °F 66% 30.08 in 10.0 mi West 4.6 mph - N/A   Clear
10:55 PM 41.0 °F 39.0 °F 32.0 °F 70% 30.08 in 10.0 mi West 3.5 mph - N/A   Clear
11:15 PM 41.0 °F 39.0 °F 32.0 °F 70% 30.09 in 10.0 mi West 3.5 mph - N/A   Scattered Clouds
11:35 PM 41.0 °F 38.0 °F 32.0 °F 70% 30.08 in 10.0 mi West 4.6 mph - N/A   Scattered Clouds
11:55 PM 42.8 °F 40.1 °F 32.0 °F 66% 30.08 in 10.0 mi West 4.6 mph - N/A   Scattered Clouds